Regional Weather Roundup
Issued by NWS

Home | Current Version | Previous Version | Graphics & Text | Print | Product List | Glossary On
Versions: 1 2 3 4 5 6 7 8 9 10 11 12 13 14 15 16 17 18 19 20 21 22 23 24 25 26 27 28 29 30 31 32 33 34 35 36 37 38 39 40 41 42 43 44 45 46 47 48 49 50
000
ASUS43 KDMX 301707
RWRIA

WEATHER ROUNDUP FOR IOWA
NATIONAL WEATHER SERVICE DES MOINES IA
1200 PM CDT SAT MAY 30 2015

NOTE: "FAIR" INDICATES FEW OR NO CLOUDS BELOW 12,000 FEET WITH NO
SIGNIFICANT WEATHER AND/OR OBSTRUCTIONS TO VISIBILITY.

* - THESE STATIONS ARE NOT NWS STATIONS...THUS NOT UNDER NWS
QUALITY CONTROL.  THEY ALSO DO NOT REPORT WEATHER SUCH
AS PRECIPITATION OR FOG.

IAZ001>003-012>014-020>022-031>034-043>046-301800-
   NORTHWEST IOWA

CITY           SKY/WX    TMP DP  RH WIND       PRES   REMARKS
CARROLL *      CLOUDY    55  50  82 N20       30.18S
CHEROKEE *     SUNNY     57  46  67 N14G22    30.22S
DENISON *      PTSUNNY   57  50  77 N17G24    30.18S
LE MARS *      MOSUNNY   55  43  62 N14G22    30.26S
ORANGE CITY *  MOSUNNY   54  43  66 N10G20    30.25S
SHELDON *      MOSUNNY   55 N/A N/A N21       30.24S
SIOUX CITY     SUNNY     59  43  55 N18G24    30.24S
SPENCER        PTSUNNY   57  43  59 N21G30    30.23R
STORM LAKE *   SUNNY     57  43  58 NE18G25   30.21S
$$

IAZ055>058-069>071-079>083-090>094-301800-
   SOUTHWEST IOWA

CITY           SKY/WX    TMP DP  RH WIND       PRES   REMARKS
ATLANTIC *     CLOUDY    55  52  88 N15G21    30.17S
AUDUBON *      MOSUNNY   55  50  82 N20G25    30.18S
CLARINDA *     CLOUDY    55  52  88 N14G21    30.17R
COUNCIL BLFS * CLOUDY    57  52  82 N14G23    30.19R
CRESTON *      CLOUDY    55  54  94 N16       30.13S
HARLAN  *      CLOUDY    55  54  94 N16       30.22R
LAMONI         CLOUDY    60  53  77 N16       30.10R
RED OAK *      CLOUDY    55  52  88 N17G24    30.17R
SHENANDOAH *   CLOUDY    55  50  82 N15       30.18R
$$

IAZ047>049-059>061-072>074-084-301800-
   CENTRAL IOWA

CITY           SKY/WX    TMP DP  RH WIND       PRES   REMARKS
AMES           CLOUDY    60  51  72 N18       30.13R
ANKENY *       CLOUDY    59  52  77 N16       30.12S
CHARITON *     CLOUDY    59  55  88 N15G23    30.10R
DES MOINES     DRIZZLE   58  52  80 N14       30.12R
GRINNELL*      CLOUDY    59  54  82 N16G23    30.10R
KNOXVILLE *    CLOUDY    57  54  88 N14G21    30.08S FOG
MARSHALLTOWN   CLOUDY    57  52  83 N18G25    30.11R
PELLA *        CLOUDY    59  57  94 N13G21    30.10S
PERRY *        CLOUDY    57  50  77 N20       30.16R
$$

IAZ004>006-015-016-023>025-035-036-301800-
   NORTH CENTRAL IOWA

CITY           SKY/WX    TMP DP  RH WIND       PRES   REMARKS
ALGONA *       PTSUNNY   55  48  76 NE22      30.20S
CLARION *      CLOUDY    55  50  82 N18G24    30.17R
ESTHERVILLE    PTSUNNY   53  43  68 N17G25    30.23R
FORT DODGE *   CLOUDY    55  46  71 N10G18    30.18S
MASON CITY     CLOUDY    58  50  75 N15       30.18R
FOREST CITY *  CLOUDY    54  46  76 N15G23    30.18S
IOWA FALLS *   CLOUDY    57  50  77 N13G22    30.15R
$$

IAZ007>011-017>019-026>030-037>042-050>054-066-301800-
   NORTHEAST IOWA

CITY           SKY/WX    TMP DP  RH WIND       PRES   REMARKS
CEDAR RAPIDS   CLOUDY    61  58  90 N17       30.04R
CHARLES CITY * CLOUDY    57  54  88 NE17G25   30.15R
CLINTON *      CLOUDY    64  61  88 N14       30.02R
DECORAH *      CLOUDY    55  52  88 NE9G18    30.12R
DUBUQUE        CLOUDY    58  55  90 NE20G26   30.04R
MONTICELLO *   CLOUDY    63  59  88 NE14G23   30.04R
OELWEIN *      CLOUDY    57  54  88 NE23      30.10S
WATERLOO       CLOUDY    57  52  83 N16       30.11R
$$

IAZ064-065-067-068-078-301800-
   EAST CENTRAL IOWA

CITY           SKY/WX    TMP DP  RH WIND       PRES   REMARKS
DAVENPORT      CLOUDY    67  63  87 N16       30.00R
IOWA CITY      CLOUDY    64  59  83 N17       30.04R
MT. PLEASANT * CLOUDY    68  63  83 NW12      30.01R
MUSCATINE *    CLOUDY    68  63  83 N12       30.00S
QUAD CITIES    CLOUDY    71  65  81 CALM      29.98S
$$

IAZ062-063-075>077-085>089-095>099-301800-
   SOUTHEAST IOWA

CITY           SKY/WX    TMP DP  RH WIND       PRES   REMARKS
BURLINGTON     CLOUDY    67  66  97 NW9       29.99S
FAIRFIELD *    CLOUDY    64  59  82 N15       30.04R
FORT MADISON * CLOUDY    64  64 100 NW9       30.01S
KEOKUK *       CLOUDY    66  64  94 NW8       30.00S
OSKALOOSA *    CLOUDY    61  55  82 N15G22    30.07R
CENTERVILLE *  CLOUDY    59  59 100 N13       30.08S
OTTUMWA        CLOUDY    61  58  90 N15G24    30.06R
WASHINGTON *   CLOUDY    64  61  88 N13G20    30.04R
$$

ABBREVIATIONS USED IN REMARKS
   TC - TEMPERATURES IN CELSIUS
  WCI - WIND CHILL INDEX
   HX - HEAT INDEX
  VSB - VISIBILITY
$$



USA.gov is the U.S. government's official web portal to all federal, state and local government web resources and services.